• en Suisse
  • Liste des pays
  • À 7 jours
  • Température de l'eau
  • Carte satellitaire
  • Carte météo
  • Widgets météo
  • user-avatar
    Se connecter

    Météo par heure à Wexford

    Ce jour, 21 Octobre, Dimanche

    Heure Température Précipitation Vent Pression Humidité
    00:00 +12°C° 0 mm 4 m/s 771 mmHg 97%
    01:00 +12°C° 0 mm 4 m/s 770 mmHg 97%
    02:00 +12°C° 0 mm 5 m/s 770 mmHg 97%
    03:00 +12°C° 0 mm 5 m/s 770 mmHg 97%
    04:00 +13°C° 0 mm 5 m/s 770 mmHg 96%
    05:00 +13°C° 0 mm 6 m/s 770 mmHg 96%
    06:00 +13°C° 0 mm 6 m/s 770 mmHg 95%
    07:00 +13°C° 0 mm 6 m/s 770 mmHg 95%
    08:00 +13°C° 0 mm 6 m/s 770 mmHg 95%
    09:00 +13°C° 0 mm 6 m/s 770 mmHg 95%
    10:00 +13°C° 0.1 mm 6 m/s 770 mmHg 93%
    11:00 +13°C° 0.1 mm 6 m/s 770 mmHg 91%
    12:00 +13°C° 0 mm 6 m/s 771 mmHg 86%
    13:00 +13°C° 0 mm 6 m/s 771 mmHg 83%
    14:00 +13°C° 0 mm 6 m/s 771 mmHg 81%
    15:00 +13°C° 0 mm 6 m/s 771 mmHg 78%
    16:00 +11°C° 0 mm 6 m/s 772 mmHg 81%
    17:00 +10°C° 0 mm 6 m/s 773 mmHg 84%
    18:00 +8°C° 0 mm 7 m/s 773 mmHg 87%
    19:00 +6°C° 0 mm 7 m/s 774 mmHg 88%
    20:00 +6°C° 0 mm 7 m/s 775 mmHg 88%
    21:00 +5°C° 0 mm 7 m/s 776 mmHg 89%
    22:00 +4°C° 0 mm 7 m/s 776 mmHg 90%
    23:00 +4°C° 0 mm 6 m/s 777 mmHg 90%

    Demain, 22 Octobre, Lundi

    Heure Température Précipitation Vent Pression Humidité
    00:00 +3°C° 0 mm 6 m/s 777 mmHg 91%
    01:00 +3°C° 0 mm 6 m/s 777 mmHg 91%
    02:00 +3°C° 0 mm 6 m/s 778 mmHg 92%
    03:00 +3°C° 0 mm 6 m/s 778 mmHg 92%
    04:00 +2°C° 0 mm 6 m/s 778 mmHg 92%
    05:00 +2°C° 0 mm 6 m/s 779 mmHg 91%
    06:00 +2°C° 0 mm 6 m/s 779 mmHg 91%
    07:00 +3°C° 0 mm 5 m/s 780 mmHg 88%
    08:00 +5°C° 0 mm 5 m/s 780 mmHg 85%
    09:00 +6°C° 0 mm 5 m/s 780 mmHg 82%
    10:00 +7°C° 0 mm 4 m/s 780 mmHg 78%
    11:00 +10°C° 0 mm 4 m/s 780 mmHg 73%
    12:00 +11°C° 0 mm 4 m/s 780 mmHg 69%
    13:00 +11°C° 0 mm 4 m/s 780 mmHg 70%
    14:00 +11°C° 0 mm 3 m/s 780 mmHg 70%
    15:00 +12°C° 0 mm 3 m/s 780 mmHg 71%
    16:00 +10°C° 0 mm 3 m/s 780 mmHg 78%
    17:00 +8°C° 0 mm 4 m/s 780 mmHg 84%
    18:00 +7°C° 0 mm 4 m/s 780 mmHg 91%
    19:00 +6°C° 0 mm 4 m/s 780 mmHg 92%
    20:00 +6°C° 0 mm 4 m/s 780 mmHg 93%
    21:00 +6°C° 0 mm 5 m/s 780 mmHg 94%
    22:00 +6°C° 0 mm 5 m/s 780 mmHg 94%
    23:00 +6°C° 0 mm 5 m/s 780 mmHg 95%

    Après-demain, 23 Octobre, Mardi

    Heure Température Précipitation Vent Pression Humidité
    00:00 +6°C° 0 mm 5 m/s 779 mmHg 95%
    01:00 +6°C° 0 mm 5 m/s 779 mmHg 96%
    02:00 +5°C° 0 mm 6 m/s 779 mmHg 96%
    03:00 +5°C° 0 mm 6 m/s 778 mmHg 96%
    04:00 +6°C° 0 mm 5 m/s 778 mmHg 96%
    05:00 +6°C° 0 mm 5 m/s 778 mmHg 96%
    06:00 +7°C° 0 mm 5 m/s 778 mmHg 96%
    07:00 +7°C° 0 mm 5 m/s 778 mmHg 95%
    08:00 +8°C° 0 mm 5 m/s 778 mmHg 94%
    09:00 +8°C° 0 mm 5 m/s 778 mmHg 93%
    10:00 +10°C° 0 mm 5 m/s 777 mmHg 88%
    11:00 +11°C° 0 mm 6 m/s 777 mmHg 83%
    12:00 +13°C° 0 mm 6 m/s 777 mmHg 78%
    13:00 +14°C° 0 mm 6 m/s 777 mmHg 77%
    14:00 +14°C° 0 mm 5 m/s 776 mmHg 77%
    15:00 +14°C° 0 mm 5 m/s 776 mmHg 76%
    16:00 +13°C° 0 mm 5 m/s 776 mmHg 82%
    17:00 +10°C° 0 mm 5 m/s 776 mmHg 87%
    18:00 +8°C° 0 mm 5 m/s 776 mmHg 92%
    19:00 +8°C° 0 mm 5 m/s 776 mmHg 94%
    20:00 +7°C° 0 mm 5 m/s 776 mmHg 95%
    21:00 +6°C° 0 mm 5 m/s 776 mmHg 96%
    22:00 +6°C° 0 mm 5 m/s 776 mmHg 96%
    23:00 +6°C° 0 mm 5 m/s 776 mmHg 96%

    24 Octobre, Mercredi

    Heure Température Précipitation Vent Pression Humidité
    00:00 +5°C° 0 mm 5 m/s 776 mmHg 96%
    01:00 +5°C° 0 mm 4 m/s 776 mmHg 96%
    02:00 +5°C° 0 mm 4 m/s 776 mmHg 97%
    03:00 +5°C° 0 mm 4 m/s 775 mmHg 97%
    04:00 +5°C° 0 mm 4 m/s 775 mmHg 97%
    05:00 +4°C° 0 mm 4 m/s 775 mmHg 97%
    06:00 +4°C° 0 mm 3 m/s 775 mmHg 97%
    07:00 +5°C° 0 mm 3 m/s 775 mmHg 95%
    08:00 +7°C° 0 mm 3 m/s 775 mmHg 94%
    09:00 +8°C° 0 mm 3 m/s 775 mmHg 92%
    10:00 +9°C° 0 mm 3 m/s 775 mmHg 88%
    11:00 +11°C° 0 mm 3 m/s 775 mmHg 84%
    12:00 +12°C° 0 mm 3 m/s 775 mmHg 79%
    13:00 +13°C° 0 mm 3 m/s 774 mmHg 79%
    14:00 +14°C° 0 mm 2 m/s 774 mmHg 78%
    15:00 +14°C° 0 mm 2 m/s 773 mmHg 78%
    16:00 +13°C° 0 mm 2 m/s 773 mmHg 83%
    17:00 +10°C° 0 mm 2 m/s 773 mmHg 88%
    18:00 +9°C° 0 mm 1 m/s 773 mmHg 93%
    19:00 +8°C° 0 mm 2 m/s 773 mmHg 93%
    20:00 +7°C° 0 mm 2 m/s 773 mmHg 94%
    21:00 +7°C° 0 mm 2 m/s 772 mmHg 95%
    22:00 +7°C° 0 mm 2 m/s 772 mmHg 95%
    23:00 +6°C° 0 mm 2 m/s 772 mmHg 95%

    25 Octobre, Jeudi

    Heure Température Précipitation Vent Pression Humidité
    00:00 +6°C° 0 mm 2 m/s 771 mmHg 95%
    01:00 +6°C° 0 mm 2 m/s 771 mmHg 96%
    02:00 +6°C° 0 mm 2 m/s 770 mmHg 96%
    03:00 +5°C° 0 mm 2 m/s 770 mmHg 96%
    04:00 +5°C° 0 mm 2 m/s 770 mmHg 96%
    05:00 +5°C° 0 mm 2 m/s 769 mmHg 96%
    06:00 +5°C° 0 mm 2 m/s 769 mmHg 96%
    07:00 +5°C° 0 mm 2 m/s 769 mmHg 95%
    08:00 +6°C° 0 mm 2 m/s 768 mmHg 93%
    09:00 +7°C° 0 mm 2 m/s 768 mmHg 92%
    10:00 +8°C° 0 mm 2 m/s 768 mmHg 86%
    11:00 +10°C° 0 mm 2 m/s 767 mmHg 81%
    12:00 +12°C° 0 mm 2 m/s 767 mmHg 76%
    13:00 +12°C° 0 mm 2 m/s 766 mmHg 76%
    14:00 +13°C° 0 mm 2 m/s 766 mmHg 76%
    15:00 +12°C° 0 mm 3 m/s 765 mmHg 76%
    16:00 +11°C° 0 mm 3 m/s 764 mmHg 82%
    17:00 +10°C° 0 mm 4 m/s 764 mmHg 87%
    18:00 +7°C° 0 mm 4 m/s 764 mmHg 93%
    19:00 +7°C° 0 mm 5 m/s 763 mmHg 93%
    20:00 +7°C° 0 mm 5 m/s 763 mmHg 93%
    21:00 +7°C° 0 mm 5 m/s 763 mmHg 94%
    22:00 +7°C° 0 mm 6 m/s 763 mmHg 89%
    23:00 +5°C° 0 mm 8 m/s 763 mmHg 85%

    26 Octobre, Vendredi

    Heure Température Précipitation Vent Pression Humidité
    00:00 +5°C° 0 mm 9 m/s 763 mmHg 81%
    01:00 +3°C° 0 mm 9 m/s 763 mmHg 83%
    02:00 +2°C° 0 mm 9 m/s 763 mmHg 84%
    03:00 +1°C° 0 mm 8 m/s 763 mmHg 86%
    04:00 +1°C° 0 mm 8 m/s 763 mmHg 86%
    05:00 +1°C° 0 mm 8 m/s 763 mmHg 87%
    06:00 +1°C° 0 mm 8 m/s 763 mmHg 87%
    07:00 +1°C° 0 mm 8 m/s 763 mmHg 84%
    08:00 +2°C° 0 mm 9 m/s 763 mmHg 81%
    09:00 +3°C° 0 mm 9 m/s 763 mmHg 78%
    10:00 +5°C° 0 mm 9 m/s 764 mmHg 73%
    11:00 +6°C° 0 mm 9 m/s 764 mmHg 67%
    12:00 +7°C° 0 mm 9 m/s 764 mmHg 61%
    13:00 +7°C° 0 mm 9 m/s 764 mmHg 63%
    14:00 +7°C° 0 mm 10 m/s 764 mmHg 64%
    15:00 +6°C° 0 mm 10 m/s 764 mmHg 65%
    16:00 +5°C° 0 mm 10 m/s 764 mmHg 67%
    17:00 +3°C° 0 mm 10 m/s 764 mmHg 70%
    18:00 +2°C° 0 mm 10 m/s 764 mmHg 73%
    19:00 +2°C° 0 mm 10 m/s 764 mmHg 75%
    20:00 +2°C° 0 mm 11 m/s 764 mmHg 77%
    21:00 +1°C° 0 mm 11 m/s 765 mmHg 79%
    22:00 +1°C° 0 mm 10 m/s 765 mmHg 80%
    23:00 +1°C° 0 mm 10 m/s 765 mmHg 80%
    Voir plus